Glendale Luke AFB, AZ

4:42 AM MST on December 13, 2019 (GMT -0700)
Luke Air Force Base

Weather History for KLUF - November, 2019

Change the Weather History Date:

Friday, November 22, 2019

  Actual Average Record
Temperature  
Mean Temperature 56 °F -  
Max Temperature 64 °F 73 °F 91 °F (1950)
Min Temperature 49 °F 41 °F 27 °F (1953)
Degree Days  
Heating Degree Days 8    
Growing Degree Days 6 (Base 50)    
Moisture  
Dew Point 49 °F    
Average Humidity 85    
Maximum Humidity 100    
Minimum Humidity 45    
Precipitation  
Precipitation 0.00 in - - ()
Sea Level Pressure  
Sea Level Pressure 30.11 in    
Wind  
Wind Speed 4 mph (North)    
Max Wind Speed 7 mph    
Max Gust Speed -    
Visibility 10 miles    
Events      
Averages and records for this station are not official NWS values.
T = Trace of Precipitation, MM = Missing Value Source: NWS Daily Summary

Daily Weather History Graph

Daily Weather History Graph

Search for Another Location

Airport or City:

Astronomy

Nov. 22, 2019 Rise Set
Actual Time 7:07 AM MST 5:23 PM MST
Civil Twilight 6:40 AM MST 5:50 PM MST
Nautical Twilight 6:10 AM MST 6:20 PM MST
Astronomical Twilight 5:40 AM MST 6:50 PM MST
Moon 2:35 AM MST (11/22) 3:10 PM MST (11/22)
Length of Visible Light 11h 09m
Length of Day
10h 16m
Waning Crescent, 19% of the Moon is Illuminated
Nov 22
Waning Crescent
Nov 26
New
Dec 3
First Quarter
Dec 11
Full
Dec 18
Last Quarter

Hourly Weather History & Observations

Time (MST) Temp. Dew Point Humidity Pressure Visibility Wind Dir Wind Speed Gust Speed Precip Events Conditions
12:08 AM 51.8 °F 51.8 °F 100% 30.08 in 10.0 mi NNE 6.9 mph - N/A   Mostly Cloudy
12:28 AM 51.8 °F 50.0 °F 94% 30.08 in 10.0 mi NE 5.8 mph - N/A   Mostly Cloudy
12:58 AM 52.0 °F 51.6 °F 99% 30.08 in 10.0 mi NNE 4.6 mph - N/A   Mostly Cloudy
1:18 AM 51.8 °F 51.8 °F 100% 30.09 in 10.0 mi North 3.5 mph - N/A   Overcast
1:58 AM 52.7 °F 52.2 °F 98% 30.09 in 10.0 mi Calm Calm - N/A   Overcast
2:48 AM 53.6 °F 51.8 °F 94% 30.09 in 10.0 mi North 3.5 mph - N/A   Overcast
2:58 AM 52.7 °F 52.3 °F 99% 30.10 in 10.0 mi NNE 4.6 mph - N/A   Overcast
5:58 AM 49.5 °F 49.5 °F 100% 30.11 in 10.0 mi North 4.6 mph - N/A   Clear
6:38 AM 50.0 °F 50.0 °F 100% 30.12 in 10.0 mi North 3.5 mph - N/A   Mostly Cloudy
6:58 AM 49.5 °F 49.5 °F 100% 30.13 in 10.0 mi NNW 3.5 mph - N/A   Overcast
7:16 AM 50.0 °F 50.0 °F 100% 30.14 in 10.0 mi NNW 3.5 mph - N/A   Light Drizzle
7:26 AM 50.0 °F 50.0 °F 100% 30.14 in 10.0 mi North 3.5 mph - N/A   Mostly Cloudy
7:46 AM 51.8 °F 51.8 °F 100% 30.14 in 10.0 mi NNE 4.6 mph - N/A   Partly Cloudy
7:58 AM 51.8 °F 50.9 °F 97% 30.15 in 10.0 mi NNE 4.6 mph - 0.00 in   Partly Cloudy
8:58 AM 54.9 °F 46.4 °F 73% 30.16 in 10.0 mi NNE 4.6 mph - N/A   Clear
10:58 AM 60.3 °F 45.9 °F 59% 30.16 in 10.0 mi ENE 3.5 mph - N/A   Clear
12:58 PM 63.0 °F 45.1 °F 52% 30.11 in 10.0 mi North 3.5 mph - N/A   Clear
2:58 PM 64.4 °F 43.2 °F 46% 30.07 in 10.0 mi Calm Calm - N/A   Clear
3:58 PM 64.2 °F 42.4 °F 45% 30.06 in 10.0 mi Calm Calm - N/A   Partly Cloudy
5:58 PM 61.2 °F 48.9 °F 64% 30.08 in 10.0 mi Calm Calm - N/A   Clear
6:58 PM 58.3 °F 50.0 °F 74% 30.10 in 10.0 mi West 4.6 mph - N/A   Clear
7:58 PM 55.4 °F 49.6 °F 81% 30.11 in 10.0 mi WNW 3.5 mph - N/A   Clear
8:58 PM 53.6 °F 50.2 °F 88% 30.11 in 10.0 mi North 4.6 mph - N/A   Clear
9:58 PM 53.1 °F 47.3 °F 81% 30.13 in 10.0 mi North 3.5 mph - N/A   Clear